Flag for Switzerland Weather past 2 weeks in Biel, Switzerland

Now
30 °F

Chilly.


Feels Like: 26 °F
Forecast: 21 / 37 °F
Wind: 3 mph from Northeast

Location: Grenchen

Current Time: Jan 26, 2015 at 1:40:34 AM

Latest Report: Jan 26, 2015 at 12:00 AM


Visibility: N/A

Pressure: 30.47 "Hg

Humidity: 90%

Dew point: 27 °F

Location of BielLocation

Historic Weather in Biel — Graph

°F

Biel temperature yesterday

Maximum temperature yesterday: 36 °F (at 3:00 PM)
Minimum temperature yesterday: 29 °F (at 8:00 PM)
Average temperature yesterday: 33 °F

Past Weeks' High & Low Weather Summary

 TemperatureHumidityPressure
High51 °F (Jan 11, 1:00 AM)100% (Jan 13, 4:00 AM)30.56 "Hg (Jan 13, 4:00 AM)
Low23 °F (Jan 13, 8:00 AM)54% (Jan 13, 3:00 PM)29.72 "Hg (Jan 16, 4:00 PM)
Average35 °F89%30.11 "Hg
* Reported Midnight between Jan 10 and Jan 11 — Midnight between Jan 25 and Jan 26, Biel, Weather by CustomWeather, © 2014

Note: Actual official high and low records may vary slightly from our data, if they occured in-between our weather recording intervals... More about our weather records

Advertising

Biel weather history for previous 24 hours

 ConditionsComfort  
Time TempWeatherWind HumidityBarometerVisibility
12:00 AM
Jan 26
30 °FChilly.3 mph90%30.47 "HgN/A
11:00 PM
Jan 25
30 °FChilly.3 mph89%30.47 "HgN/A
10:00 PM30 °FChilly.2 mph89%30.48 "HgN/A
9:00 PM31 °FChilly.2 mph85%30.49 "HgN/A
8:00 PM29 °FChilly.3 mph86%30.49 "HgN/A
7:00 PM33 °FChilly.2 mph78%30.48 "HgN/A
6:00 PM33 °FChilly.2 mph78%30.47 "HgN/A
5:00 PM35 °FChilly.7 mph70%30.45 "HgN/A
4:00 PM36 °FChilly.8 mph67%30.45 "HgN/A
3:00 PM36 °FChilly.12 mph64%30.44 "HgN/A
2:00 PM36 °FChilly.7 mph66%30.45 "HgN/A
1:00 PM35 °FChilly.13 mph63%30.47 "HgN/A
12:00 PM35 °FChilly.6 mph67%30.48 "HgN/A
11:00 AM35 °FChilly.7 mph67%30.48 "HgN/A
10:00 AM33 °FChilly.3 mph75%30.47 "HgN/A
9:00 AM33 °FChilly.14 mph68%30.46 "HgN/A
8:00 AM33 °FChilly.12 mph67%30.44 "HgN/A
7:00 AM34 °FChilly.12 mph67%30.41 "HgN/A
6:00 AM34 °FChilly.16 mph72%30.38 "HgN/A
5:00 AM35 °FChilly.12 mph72%30.37 "HgN/A
4:00 AM35 °FChilly.13 mph76%30.36 "HgN/A
3:00 AM34 °FChilly.3 mph82%30.37 "HgN/A
2:00 AM31 °FChilly.1 mph96%30.37 "HgN/A
1:00 AM31 °FChilly.1 mph94%30.36 "HgN/A
Weather by CustomWeather, © 2014

See weather overviewHow to use our weather pages